• In Kazakhstan
  • List of Countries
  • For 7 days
  • Water Temperature
  • Satellite Maps
  • Weather Map
  • News
  • Weather Widgets
  • user-avatar
    Login

    Hourly Weather Fier

    Today, 20 January, Sunday

    Time Temperature Precipitation Wind Pressure Humidity
    00:00 +9°C° 0 mm 3 mps 759 mmHg 78%
    01:00 +8°C° 0 mm 4 mps 759 mmHg 77%
    02:00 +8°C° 0.4 mm 4 mps 759 mmHg 78%
    03:00 +8°C° 0.4 mm 4 mps 759 mmHg 79%
    04:00 +9°C° 0.4 mm 3 mps 759 mmHg 79%
    05:00 +8°C° 0.1 mm 4 mps 759 mmHg 79%
    06:00 +8°C° 0.1 mm 4 mps 759 mmHg 79%
    07:00 +8°C° 0 mm 3 mps 759 mmHg 79%
    08:00 +10°C° 0.1 mm 3 mps 759 mmHg 75%
    09:00 +11°C° 0.1 mm 3 mps 759 mmHg 71%
    10:00 +12°C° 0.1 mm 3 mps 759 mmHg 66%
    11:00 +13°C° 0.3 mm 3 mps 759 mmHg 64%
    12:00 +14°C° 0.3 mm 3 mps 759 mmHg 62%
    13:00 +14°C° 0.3 mm 3 mps 759 mmHg 59%
    14:00 +14°C° 0.2 mm 3 mps 759 mmHg 63%
    15:00 +14°C° 0.2 mm 2 mps 759 mmHg 67%
    16:00 +14°C° 0.2 mm 2 mps 759 mmHg 71%
    17:00 +13°C° 0.1 mm 2 mps 759 mmHg 74%
    18:00 +12°C° 0.1 mm 2 mps 759 mmHg 77%
    19:00 +10°C° 0.1 mm 2 mps 759 mmHg 80%
    20:00 +9°C° 0 mm 2 mps 759 mmHg 80%
    21:00 +9°C° 0 mm 2 mps 759 mmHg 80%
    22:00 +9°C° 0 mm 2 mps 760 mmHg 80%
    23:00 +8°C° 0 mm 2 mps 760 mmHg 79%

    Tomorrow, 21 January, Monday

    Time Temperature Precipitation Wind Pressure Humidity
    00:00 +8°C° 0 mm 2 mps 760 mmHg 79%
    01:00 +8°C° 0 mm 2 mps 760 mmHg 78%
    02:00 +8°C° 0 mm 2 mps 760 mmHg 77%
    03:00 +7°C° 0 mm 2 mps 760 mmHg 77%
    04:00 +7°C° 0 mm 2 mps 760 mmHg 76%
    05:00 +7°C° 0 mm 2 mps 760 mmHg 75%
    06:00 +7°C° 0 mm 2 mps 760 mmHg 75%
    07:00 +7°C° 0 mm 2 mps 760 mmHg 74%
    08:00 +8°C° 0 mm 2 mps 760 mmHg 69%
    09:00 +10°C° 0 mm 2 mps 760 mmHg 63%
    10:00 +13°C° 0 mm 2 mps 760 mmHg 58%
    11:00 +14°C° 0 mm 2 mps 760 mmHg 55%
    12:00 +14°C° 0 mm 1 mps 760 mmHg 52%
    13:00 +15°C° 0 mm 1 mps 759 mmHg 49%
    14:00 +15°C° 0 mm 1 mps 759 mmHg 52%
    15:00 +14°C° 0 mm 1 mps 759 mmHg 56%
    16:00 +14°C° 0 mm 1 mps 759 mmHg 60%
    17:00 +13°C° 0 mm 2 mps 760 mmHg 63%
    18:00 +12°C° 0 mm 2 mps 760 mmHg 66%
    19:00 +10°C° 0 mm 3 mps 760 mmHg 69%
    20:00 +10°C° 0 mm 3 mps 760 mmHg 69%
    21:00 +10°C° 0 mm 3 mps 760 mmHg 70%
    22:00 +9°C° 0 mm 3 mps 760 mmHg 70%
    23:00 +8°C° 0 mm 4 mps 760 mmHg 70%

    Day after tomorrow, 22 January, Tuesday

    Time Temperature Precipitation Wind Pressure Humidity
    00:00 +8°C° 0 mm 4 mps 760 mmHg 70%
    01:00 +8°C° 0 mm 4 mps 760 mmHg 70%
    02:00 +8°C° 0.1 mm 4 mps 759 mmHg 70%
    03:00 +8°C° 0.1 mm 4 mps 759 mmHg 70%
    04:00 +7°C° 0.1 mm 4 mps 758 mmHg 71%
    05:00 +8°C° 0 mm 4 mps 758 mmHg 70%
    06:00 +8°C° 0 mm 4 mps 757 mmHg 69%
    07:00 +8°C° 0 mm 5 mps 757 mmHg 68%
    08:00 +9°C° 0.1 mm 5 mps 757 mmHg 65%
    09:00 +10°C° 0.1 mm 5 mps 757 mmHg 61%
    10:00 +11°C° 0.1 mm 6 mps 756 mmHg 58%
    11:00 +13°C° 0.1 mm 6 mps 756 mmHg 57%
    12:00 +14°C° 0.1 mm 6 mps 755 mmHg 55%
    13:00 +15°C° 0.1 mm 7 mps 754 mmHg 54%
    14:00 +14°C° 0.3 mm 6 mps 754 mmHg 59%
    15:00 +13°C° 0.3 mm 6 mps 753 mmHg 64%
    16:00 +12°C° 0.3 mm 5 mps 753 mmHg 69%
    17:00 +10°C° 0.1 mm 5 mps 752 mmHg 69%
    18:00 +10°C° 0.1 mm 5 mps 752 mmHg 70%
    19:00 +9°C° 0.1 mm 6 mps 751 mmHg 70%
    20:00 +9°C° 0.1 mm 5 mps 751 mmHg 71%
    21:00 +9°C° 0.1 mm 5 mps 751 mmHg 72%
    22:00 +9°C° 0.1 mm 5 mps 750 mmHg 73%
    23:00 +9°C° 0.5 mm 5 mps 750 mmHg 75%

    23 January, Wednesday

    Time Temperature Precipitation Wind Pressure Humidity
    00:00 +9°C° 0.5 mm 5 mps 749 mmHg 77%
    01:00 +8°C° 0.5 mm 5 mps 749 mmHg 79%
    02:00 +8°C° 0.8 mm 5 mps 749 mmHg 80%
    03:00 +9°C° 0.8 mm 6 mps 748 mmHg 80%
    04:00 +9°C° 0.8 mm 6 mps 748 mmHg 81%
    05:00 +9°C° 1.1 mm 6 mps 749 mmHg 82%
    06:00 +8°C° 1.1 mm 6 mps 749 mmHg 82%
    07:00 +8°C° 1.1 mm 6 mps 750 mmHg 83%
    08:00 +9°C° 1.5 mm 6 mps 750 mmHg 77%
    09:00 +10°C° 1.5 mm 6 mps 750 mmHg 72%
    10:00 +11°C° 1.5 mm 6 mps 751 mmHg 66%
    11:00 +11°C° 0.4 mm 7 mps 750 mmHg 63%
    12:00 +11°C° 0.4 mm 7 mps 750 mmHg 60%
    13:00 +12°C° 0.4 mm 7 mps 750 mmHg 57%
    14:00 +11°C° 0 mm 6 mps 750 mmHg 60%
    15:00 +12°C° 0 mm 5 mps 750 mmHg 62%
    16:00 +11°C° 0 mm 4 mps 750 mmHg 65%
    17:00 +10°C° 0 mm 4 mps 750 mmHg 68%
    18:00 +8°C° 0 mm 4 mps 750 mmHg 71%
    19:00 +7°C° 0 mm 4 mps 750 mmHg 74%
    20:00 +7°C° 0 mm 4 mps 750 mmHg 74%
    21:00 +8°C° 0 mm 3 mps 750 mmHg 73%
    22:00 +7°C° 0 mm 3 mps 749 mmHg 72%
    23:00 +7°C° 0 mm 3 mps 749 mmHg 72%

    24 January, Thursday

    Time Temperature Precipitation Wind Pressure Humidity
    00:00 +7°C° 0 mm 3 mps 748 mmHg 71%
    01:00 +7°C° 0 mm 2 mps 747 mmHg 71%
    02:00 +7°C° 0.1 mm 2 mps 747 mmHg 73%
    03:00 +7°C° 0.1 mm 2 mps 746 mmHg 75%
    04:00 +7°C° 0.1 mm 3 mps 745 mmHg 77%
    05:00 +7°C° 1 mm 2 mps 745 mmHg 79%
    06:00 +7°C° 1 mm 2 mps 744 mmHg 80%
    07:00 +7°C° 1 mm 2 mps 744 mmHg 82%
    08:00 +8°C° 0.9 mm 2 mps 744 mmHg 82%
    09:00 +8°C° 0.9 mm 3 mps 744 mmHg 82%
    10:00 +9°C° 0.9 mm 3 mps 744 mmHg 82%
    11:00 +9°C° 0.9 mm 3 mps 743 mmHg 81%
    12:00 +9°C° 0.9 mm 3 mps 743 mmHg 80%
    13:00 +10°C° 0.9 mm 3 mps 742 mmHg 80%
    14:00 +10°C° 0.1 mm 3 mps 742 mmHg 80%
    15:00 +10°C° 0.1 mm 3 mps 742 mmHg 80%
    16:00 +10°C° 0.1 mm 2 mps 741 mmHg 80%
    17:00 +9°C° 0 mm 2 mps 741 mmHg 81%
    18:00 +9°C° 0 mm 2 mps 741 mmHg 82%
    19:00 +8°C° 0 mm 2 mps 741 mmHg 83%
    20:00 +8°C° 0 mm 2 mps 741 mmHg 82%
    21:00 +8°C° 0 mm 2 mps 741 mmHg 81%
    22:00 +8°C° 0 mm 2 mps 741 mmHg 80%
    23:00 +8°C° 0 mm 3 mps 741 mmHg 81%

    25 January, Friday

    Time Temperature Precipitation Wind Pressure Humidity
    00:00 +8°C° 0 mm 3 mps 742 mmHg 82%
    01:00 +7°C° 0 mm 4 mps 742 mmHg 83%
    02:00 +8°C° 0 mm 3 mps 742 mmHg 83%
    03:00 +7°C° 0 mm 3 mps 742 mmHg 82%
    04:00 +7°C° 0 mm 2 mps 742 mmHg 82%
    05:00 +7°C° 0 mm 2 mps 742 mmHg 82%
    06:00 +7°C° 0 mm 2 mps 742 mmHg 81%
    07:00 +7°C° 0 mm 2 mps 742 mmHg 81%
    08:00 +8°C° 0 mm 2 mps 742 mmHg 76%
    09:00 +9°C° 0 mm 2 mps 742 mmHg 70%
    10:00 +12°C° 0 mm 2 mps 743 mmHg 65%
    11:00 +11°C° 0 mm 3 mps 743 mmHg 64%
    12:00 +12°C° 0 mm 3 mps 743 mmHg 63%
    13:00 +12°C° 0 mm 4 mps 743 mmHg 62%
    14:00 +12°C° 0 mm 3 mps 743 mmHg 66%
    15:00 +11°C° 0 mm 3 mps 743 mmHg 69%
    16:00 +12°C° 0 mm 2 mps 744 mmHg 72%
    17:00 +10°C° 0 mm 2 mps 744 mmHg 74%
    18:00 +9°C° 0 mm 2 mps 745 mmHg 77%
    19:00 +9°C° 0 mm 3 mps 745 mmHg 79%
    20:00 +9°C° 0 mm 2 mps 746 mmHg 79%
    21:00 +8°C° 0 mm 2 mps 747 mmHg 79%
    22:00 +8°C° 0 mm 2 mps 747 mmHg 79%
    23:00 +8°C° 0 mm 2 mps 748 mmHg 79%
    Show more